User: anonymous   Login
Location: Unspecified
(0.0000°N, 0.0000°E)
Time: 04:52:13
(UTC+00:00)
Language:

Telecom 2C - Orbit

View from above orbital plane
View from above orbital plane
View from above satellite
View from above satellite

Ground track
Ground track

The orbit data is extracted from the following two-line orbital elements,

1 23730U 95067A   18112.84792602 -.00000053  00000-0  00000+0 0  9991
2 23730  11.1993  36.6297 0016941 245.8694 113.8906  0.97939350 81353
Epoch (UTC): 22 April 2018 20:21:00
Eccentricity: 0.0016941
inclination: 11.1993°
perigee height: 36380 km
apogee height: 36525 km
right ascension of ascending node: 36.6297°
argument of perigee: 245.8694°
revolutions per day: 0.97939350
mean anomaly at epoch: 113.8906°
orbit number at epoch: 8135

The dashed part of the orbit path shows where the satellite is in the earth's shadow,  

DLR